User: anonymous   Login
Location: Caltech
(34.1382°N, 118.1253°W)
Time: 01:14:13
(UTC-08:00)
Language:

IDEFIX/ARIANE 42P - Orbit

View from above orbital plane
View from above orbital plane
View from above satellite
View from above satellite

Ground track
Ground track

The orbit data is extracted from the following two-line orbital elements,

1 27422U 02021B   17022.96501215 -.00000050 +00000-0 -37478-5 0  9994
2 27422 098.2278 031.2881 0011464 311.1132 048.9061 14.29252222767825
Epoch (UTC): 22 January 2017 23:09:37
Eccentricity: 0.0011464
inclination: 98.2278°
perigee height: 786 km
apogee height: 802 km
right ascension of ascending node: 31.2881°
argument of perigee: 311.1132°
revolutions per day: 14.29252222
mean anomaly at epoch: 48.9061°
orbit number at epoch: 76782

The dashed part of the orbit path shows where the satellite is in the earth's shadow,  

DLR